User: anonymous
Location: Walnut Point State Park
(39.6958°N, 88.0345°W)
Time: 19:08:25
(UTC-05:00)
Language:

ATLAS 3B R/B - Orbit

View from above orbital plane
View from above orbital plane
View from above satellite
View from above satellite

Ground track
Ground track

The orbit data is extracted from the following two-line orbital elements,

1 28538U 05004B   14238.43148369 0.00000060  00000-0  90916-4 0    09
2 28538  63.8180   3.1014 0220000 246.1471 113.8529 13.43028266    06
Epoch (UTC): 26 August 2014 10:21:20
Eccentricity: 0.0220000
inclination: 63.8180°
perigee height: 933 km
apogee height: 1262 km
right ascension of ascending node: 3.1014°
argument of perigee: 246.1471°
revolutions per day: 13.43028266
mean anomaly at epoch: 113.8529°
orbit number at epoch: 0

The dashed part of the orbit path shows where the satellite is in the earth's shadow,  

DLR